CZ-4B DEB, 40530

Orbit data source: Space-Track

CZ-4B DEB, 40530 is space debris in LEO originally from a launch on Fri, 25 Oct 2013 UTC launched from the Jiuquan Satellite Launch Center, China (JSC). Debris objects in space refer to the collection of defunct objects orbiting the Earth. Examples of debris include non-operational satellites, rocket bodies, and fragments generated from explosions, collisions, or faulty payload assembly.

Loading next visibility...
Identifier
40530, 2013-057C
Orbit
LEO
Country
Flag of CNCN / PRC
Related business
Manufacturer
SAST
Mission
Spacecraft
Bus & Motor
Unknown
Mass
Unknown
Launch date (UTC)
2013-10-25 (12 years ago)
Launch vehicle
Unknown
Launch site
Jiuquan Satellite Launch Center, China (JSC)
Object type
Payload
Rocket body
Debris
Shape & HBR
Unknown
Radar Cross Section
Small (<0.1 m²)

Expand to show TLE details & history
Last TLE update: 2 days ago

TLE from 2 days ago
0 CZ-4B DEB
1 40530U 13057C   25259.04068274  .00004025  00000-0  72165-3 0  9997
2 40530  75.0527  26.7390 0181413  67.3062 294.7173 14.56793451552403
Epoch: 2025-09-16T00:58Z
TLE epoch observation values (Epoch: 2025-09-16T00:58:34.988Z)
Latitude
-0°
Longitude
16.85653°
Altitude
654.457 km
Speed
7.558 km/s
True Right ascension
01h 46m 57s
True Declination
0° 00' 00"
Sunlit
Object was in full shadow at epoch
Visualization orbit readout
Latitude
Unknown
Longitude
Unknown
Altitude
Unknown
Speed
Unknown
Apparent Right ascension
Unknown
Apparent Declination
Unknown
Sunlit
N/A
Visualization observer readout
Local Sidereal Time
04:55:59
Azimuth
Unknown
Elevation
Unknown
Doppler factor
Unknown
Orbital elements
Apogee altitude
829.487 km
Perigee altitude
572.636 km
Semi-major axis
7,079.198 km
Eccentricity
0.01814
Inclination
75.0527°
RAAN
26.739°
Arg. of periapsis
67.3062°
True anomaly
292.8112°
Mean anomaly
294.7173°
Eccentric anomaly
293.76602°
Mean motion
3.6439 °/min
Orbital period
98.8 mins
BSTAR
0.00072165
Loading maneuver chart data...
Computing Atmospheric mass density...
Loading historical data...
Loading historical data...
Loading historical data...
Loading historical data...
Loading historical data...
Loading historical data...
Loading historical data...
Other satellites on launch #57 in the year 2013 (2013-10-25 UTC)

Documentation

Showing up to 5 results
|